Location: Ostrava
(49.8330°N, 18.2830°E)
Time: 18:57:27
(UTC+02:00)

Cosmos 2219 Rocket - Visible Passes

Search period start: 02 September 2015 00:00
Search period end: 12 September 2015 00:00
Orbit: 828 x 847 km, 71.0° (Epoch: 01 September)

Date Brightness Start Highest point End Pass type
(mag) Time Alt. Az. Time Alt. Az. Time Alt. Az.
02 Sep 3.7 02:05:35 26° ESE 02:05:46 26° ESE 02:10:24 10° NE visible
02 Sep 2.3 03:47:19 38° WSW 03:49:22 62° WNW 03:55:01 10° NNE visible
03 Sep 3.8 01:49:50 24° E 01:49:50 24° E 01:54:00 10° NE visible
03 Sep 2.3 03:31:34 48° WSW 03:33:03 66° WNW 03:38:43 10° NNE visible
03 Sep 4.0 05:14:19 10° WNW 05:18:12 18° NW 05:21:58 10° N visible
04 Sep 3.9 01:34:04 22° E 01:34:04 22° E 01:37:35 10° NE visible
04 Sep 2.2 03:15:48 59° WSW 03:16:43 70° WNW 03:22:25 10° NNE visible
04 Sep 4.0 04:57:49 10° W 05:01:49 19° NW 05:05:42 10° N visible
05 Sep 4.1 01:18:16 20° E 01:18:16 20° E 01:21:10 10° NE visible
05 Sep 2.1 02:59:59 70° W 03:00:24 74° WNW 03:06:06 10° NNE visible
05 Sep 3.9 04:41:43 11° W 04:45:26 20° NW 04:49:26 10° N visible
06 Sep 4.3 01:02:26 17° ENE 01:02:26 17° ENE 01:04:44 10° NE visible
06 Sep 2.1 02:44:10 79° NW 02:44:10 79° NW 02:49:48 10° NNE visible
06 Sep 3.9 04:25:53 14° WNW 04:29:03 20° NW 04:33:10 10° N visible
07 Sep 4.4 00:46:35 15° ENE 00:46:35 15° ENE 00:48:16 10° ENE visible
07 Sep 2.3 02:28:18 73° N 02:28:18 73° N 02:33:29 10° NNE visible
07 Sep 3.9 04:10:02 16° WNW 04:12:40 21° NW 04:16:54 10° N visible
08 Sep 4.5 00:30:43 13° ENE 00:30:43 13° ENE 00:31:48 10° ENE visible
08 Sep 2.5 02:12:26 63° NNE 02:12:26 63° NNE 02:17:10 10° NNE visible
08 Sep 3.8 03:54:09 18° WNW 03:56:17 22° NW 04:00:37 10° N visible
09 Sep 4.6 00:14:49 11° ENE 00:14:49 11° ENE 00:15:18 10° ENE visible
09 Sep 2.8 01:56:32 54° NNE 01:56:32 54° NNE 02:00:51 10° NNE visible
09 Sep 3.7 03:38:15 21° WNW 03:39:54 23° NW 03:44:21 10° NNE visible
10 Sep 3.1 01:40:37 46° NE 01:40:37 46° NE 01:44:32 10° NNE visible
10 Sep 3.7 03:22:20 23° WNW 03:23:32 24° NW 03:28:04 10° NNE visible
11 Sep 3.3 01:24:41 39° NE 01:24:41 39° NE 01:28:12 10° NNE visible
11 Sep 3.6 03:06:24 25° NW 03:07:09 25° NW 03:11:47 10° NNE visible
